CW4549 Weather Reports


Display with metric or nautical units.
time (UTC)temp
F
wind
direction
speed
MPH
gust
MPH
rain 1hr
in
rain 24hr
in
rain mn
in
humidity
%
barometer
mb
20260903221516 92 0.0 2.0 0.00 0.00 0.00 57 1009.2
20260903220016 94 0.0 4.0 0.00 0.00 0.00 52 1009.0
20260903214517 94 0.0 8.0 0.00 0.00 0.00 52 1008.9
20260903213017 95 0.0 7.0 0.00 0.00 0.00 50 1009.0
20260903211518 95 0.0 6.0 0.00 0.00 0.00 53 1009.0
20260903210017 94 158 1.0 6.0 0.00 0.00 0.00 51 1009.0
20260903204516 94 0.0 2.0 0.00 0.00 0.00 55 1009.3
20260903203017 95 0.0 8.0 0.00 0.00 0.00 53 1009.5
20260903201518 95 0.0 2.0 0.00 0.00 0.00 51 1009.7
20260903200017 96 0.0 6.0 0.00 0.00 0.00 48 1010.0
20260903194516 96 0.0 6.0 0.00 0.00 0.00 47 1010.1
20260903193018 96 158 1.0 7.0 0.00 0.00 0.00 47 1010.1
20260903191517 96 158 1.0 7.0 0.00 0.00 0.00 48 1010.4
20260903190017 96 0.0 6.0 0.00 0.00 0.00 47 1010.5
20260903184517 97 158 1.0 7.0 0.00 0.00 0.00 46 1010.6
20260903183017 96 0.0 6.0 0.00 0.00 0.00 47 1010.6
20260903181517 96 0.0 6.0 0.00 0.00 0.00 47 1010.7
20260903180018 96 158 1.0 7.0 0.00 0.00 0.00 48 1010.7
20260903174517 96 135 1.0 10.0 0.00 0.00 0.00 49 1010.8
20260903173017 95 158 1.0 8.0 0.00 0.00 0.00 50 1011.1
20260903171517 94 0.0 2.0 0.00 0.00 0.00 51 1011.3
20260903170017 94 0.0 3.0 0.00 0.00 0.00 51 1011.4
20260903164518 94 0.0 6.0 0.00 0.00 0.00 55 1011.7
20260903163019 93 158 1.0 10.0 0.00 0.00 0.00 56 1011.8
20260903161558 93 158 1.0 7.0 0.00 0.00 0.00 58 1011.9
20260903160017 92 135 1.0 7.0 0.00 0.00 0.00 59 1011.8
20260903154517 91 0.0 2.0 0.00 0.00 0.00 61 1011.8
20260903153017 91 0.0 7.0 0.00 0.00 0.00 65 1011.8
20260903151537 90 0.0 2.0 0.00 0.00 0.00 64 1011.9
20260903150019 89 0.0 2.0 0.00 0.00 0.00 67 1011.7
20260903144537 88 0.0 3.0 0.00 0.00 0.00 69 1011.8
20260903143017 86 0.0 3.0 0.00 0.00 0.00 71 1011.7
20260903141517 85 0.0 1.0 0.00 0.00 0.00 73 1011.7
20260903140017 84 0.0 2.0 0.00 0.00 0.00 76 1011.6
20260903134537 83 0.0 3.0 0.00 0.00 0.00 77 1011.7
20260903133037 82 0.0 2.0 0.00 0.00 0.00 80 1011.9
20260903131519 81 0.0 3.0 0.00 0.00 0.00 81 1012.2
20260903130017 79 0.0 2.0 0.00 0.00 0.00 85 1012.2
20260903124517 78 0.0 1.0 0.00 0.00 0.00 91 1012.3
20260903123017 77 0.0 1.0 0.00 0.00 0.00 97 1012.3
20260903121519 76 0.0 0.0 0.00 0.00 0.00 97 1012.4
20260903120016 76 0.0 0.0 0.00 0.00 0.00 97 1012.1
20260903114517 75 0.0 0.0 0.00 0.00 0.00 98 1012.1
20260903113015 75 0.0 0.0 0.00 0.00 0.00 98 1012.0
20260903111515 75 0.0 0.0 0.00 0.00 0.00 97 1011.9
20260903110015 75 0.0 0.0 0.00 0.00 0.00 97 1011.7
20260903104516 76 0.0 0.0 0.00 0.00 0.00 97 1011.5
20260903103015 76 0.0 0.0 0.00 0.00 0.00 97 1011.4
20260903101515 76 0.0 0.0 0.00 0.00 0.00 97 1011.5
20260903100015 76 0.0 0.0 0.00 0.00 0.00 98 1011.5
20260903094536 76 0.0 0.0 0.00 0.00 0.00 98 1011.4
20260903093015 76 0.0 0.0 0.00 0.00 0.00 98 1011.4
20260903091517 76 0.0 0.0 0.00 0.00 0.00 98 1011.3
20260903090017 76 0.0 0.0 0.00 0.00 0.00 98 1011.3
20260903084516 76 0.0 0.0 0.00 0.00 0.00 98 1011.3
20260903083016 76 0.0 0.0 0.00 0.00 0.00 98 1011.2
20260903081516 76 0.0 0.0 0.00 0.00 0.00 98 1011.2
20260903080017 76 0.0 0.0 0.00 0.00 0.00 97 1011.2
20260903074516 76 0.0 0.0 0.00 0.00 0.00 97 1011.1
20260903073016 76 0.0 0.0 0.00 0.00 0.00 97 1011.0
20260903071516 76 0.0 0.0 0.00 0.00 0.00 97 1010.9
20260903070016 77 0.0 0.0 0.00 0.00 0.00 96 1011.0
20260903064516 77 0.0 0.0 0.00 0.00 0.00 96 1011.0
20260903063017 77 0.0 0.0 0.00 0.00 0.00 95 1011.1
20260903061516 77 0.0 0.0 0.00 0.00 0.00 94 1011.0
20260903060016 77 0.0 0.0 0.00 0.00 0.00 94 1010.8
20260903054516 78 0.0 0.0 0.00 0.00 0.00 93 1010.8
20260903053016 78 0.0 0.0 0.00 0.00 0.00 93 1010.8
20260903051516 78 0.0 0.0 0.00 0.00 0.00 92 1010.7
20260903050016 78 0.0 0.0 0.00 0.00 0.00 91 1010.7
20260903044517 79 0.0 0.0 0.00 0.00 0.00 90 1010.6
20260903043016 79 0.0 0.0 0.00 0.00 0.00 89 1010.6
20260903041516 79 0.0 0.0 0.00 0.00 0.00 88 1010.6
20260903040016 79 0.0 0.0 0.00 0.00 0.00 87 1010.7
20260903034538 79 0.0 0.0 0.00 0.00 0.00 87 1010.7
20260903033039 80 0.0 0.0 0.00 0.00 0.00 86 1010.6
20260903031516 80 0.0 0.0 0.00 0.00 0.00 85 1010.7
20260903030016 81 0.0 0.0 0.00 0.00 0.00 83 1010.9
20260903024516 82 0.0 0.0 0.00 0.00 0.00 81 1011.0
20260903023016 82 0.0 0.0 0.00 0.00 0.00 79 1010.9
20260903021516 82 0.0 0.0 0.00 0.00 0.00 80 1011.0
20260903020016 81 0.0 0.0 0.00 0.00 0.00 83 1011.0
20260903014516 81 0.0 0.0 0.00 0.00 0.00 84 1011.0
20260903013017 82 0.0 0.0 0.00 0.00 0.00 83 1010.7
20260903011517 82 0.0 0.0 0.00 0.00 0.00 83 1010.7
20260903010017 83 0.0 0.0 0.00 0.00 0.00 81 1010.4
20260903004517 84 0.0 0.0 0.00 0.00 0.00 78 1010.4
20260903003016 85 0.0 0.0 0.00 0.00 0.00 76 1010.1
20260903001517 86 0.0 0.0 0.00 0.00 0.00 73 1010.2
20260903000017 88 0.0 0.0 0.00 0.00 0.00 70 1010.3
20260902234518 89 0.0 0.0 0.00 0.00 0.00 66 1010.3
20260902233017 90 0.0 2.0 0.00 0.00 0.00 65 1010.4
20260902231517 91 0.0 1.0 0.00 0.00 0.00 61 1010.5
20260902230017 92 0.0 6.0 0.00 0.00 0.00 58 1010.6
20260902224537 92 0.0 4.0 0.00 0.00 0.00 57 1010.6
20260902223017 92 0.0 5.0 0.00 0.00 0.00 57 1010.6